When you browse on this site, cookies collect data to enhance your experience and personalize the content and advertising you see.
Visit our Privacy Policy to learn more. By continuing to use the site, you agree to this use of cookies and data.
  • Em Portugal
  • Lista de países
  • Para 7 dias
  • Temperatura da água
  • Mapas de satélite
  • Mapa do tempo
  • Widgets de tempo
  • user-avatar
    Iniciar Sessão

    Previsão horária em Tirana

    Hoje, 16 Dezembro, Domingo

    Tempo Temperatura Precipitação Vento Pressão Humidade
    00:00 +8°C° 0.8 mm 5 m/s 751 mmHg 95%
    01:00 +8°C° 0 mm 5 m/s 752 mmHg 95%
    02:00 +8°C° 0.3 mm 5 m/s 752 mmHg 94%
    03:00 +8°C° 0.3 mm 5 m/s 752 mmHg 94%
    04:00 +8°C° 0.3 mm 5 m/s 752 mmHg 93%
    05:00 +7°C° 0 mm 5 m/s 752 mmHg 92%
    06:00 +7°C° 0 mm 5 m/s 752 mmHg 91%
    07:00 +6°C° 0 mm 4 m/s 753 mmHg 89%
    08:00 +7°C° 0 mm 4 m/s 753 mmHg 83%
    09:00 +7°C° 0 mm 4 m/s 754 mmHg 77%
    10:00 +8°C° 0 mm 4 m/s 754 mmHg 71%
    11:00 +8°C° 0 mm 4 m/s 754 mmHg 68%
    12:00 +8°C° 0 mm 4 m/s 754 mmHg 65%
    13:00 +8°C° 0 mm 4 m/s 754 mmHg 61%
    14:00 +7°C° 0 mm 4 m/s 754 mmHg 64%
    15:00 +7°C° 0 mm 4 m/s 754 mmHg 68%
    16:00 +6°C° 0 mm 4 m/s 755 mmHg 71%
    17:00 +7°C° 0 mm 3 m/s 755 mmHg 73%
    18:00 +5°C° 0 mm 3 m/s 755 mmHg 75%
    19:00 +4°C° 0 mm 3 m/s 756 mmHg 77%
    20:00 +5°C° 0 mm 2 m/s 756 mmHg 76%
    21:00 +5°C° 0 mm 2 m/s 756 mmHg 75%
    22:00 +5°C° 0 mm 2 m/s 756 mmHg 74%
    23:00 +5°C° 0 mm 2 m/s 756 mmHg 72%

    Amanhã, 17 Dezembro, Segunda-feira

    Tempo Temperatura Precipitação Vento Pressão Humidade
    00:00 +5°C° 0 mm 2 m/s 756 mmHg 70%
    01:00 +5°C° 0 mm 2 m/s 756 mmHg 69%
    02:00 +5°C° 0 mm 2 m/s 755 mmHg 66%
    03:00 +5°C° 0 mm 2 m/s 755 mmHg 64%
    04:00 +5°C° 0 mm 3 m/s 755 mmHg 61%
    05:00 +5°C° 0.1 mm 3 m/s 754 mmHg 60%
    06:00 +5°C° 0.1 mm 3 m/s 754 mmHg 59%
    07:00 +7°C° 0.1 mm 3 m/s 753 mmHg 57%
    08:00 +8°C° 0.1 mm 3 m/s 753 mmHg 57%
    09:00 +7°C° 0.1 mm 4 m/s 753 mmHg 57%
    10:00 +8°C° 0.1 mm 4 m/s 753 mmHg 57%
    11:00 +8°C° 0.6 mm 5 m/s 752 mmHg 62%
    12:00 +7°C° 0.6 mm 6 m/s 752 mmHg 68%
    13:00 +7°C° 0.6 mm 6 m/s 751 mmHg 73%
    14:00 +7°C° 1.2 mm 6 m/s 751 mmHg 76%
    15:00 +7°C° 1.2 mm 6 m/s 750 mmHg 79%
    16:00 +7°C° 1.2 mm 6 m/s 750 mmHg 81%
    17:00 +7°C° 1.3 mm 6 m/s 750 mmHg 82%
    18:00 +7°C° 1.3 mm 6 m/s 750 mmHg 84%
    19:00 +7°C° 1.3 mm 6 m/s 750 mmHg 85%
    20:00 +5°C° 0.8 mm 6 m/s 751 mmHg 85%
    21:00 +5°C° 0.8 mm 6 m/s 751 mmHg 85%
    22:00 +5°C° 0.8 mm 6 m/s 752 mmHg 85%
    23:00 +5°C° 0.3 mm 6 m/s 752 mmHg 84%

    Depois de amanhã, 18 Dezembro, Terça-feira

    Tempo Temperatura Precipitação Vento Pressão Humidade
    00:00 +4°C° 0.3 mm 6 m/s 752 mmHg 82%
    01:00 +4°C° 0.3 mm 6 m/s 752 mmHg 81%
    02:00 +4°C° 0 mm 6 m/s 753 mmHg 81%
    03:00 +4°C° 0 mm 6 m/s 753 mmHg 80%
    04:00 +3°C° 0 mm 6 m/s 753 mmHg 79%
    05:00 +3°C° 0 mm 6 m/s 754 mmHg 79%
    06:00 +3°C° 0 mm 6 m/s 754 mmHg 78%
    07:00 +3°C° 0 mm 6 m/s 755 mmHg 78%
    08:00 +3°C° 0 mm 6 m/s 755 mmHg 76%
    09:00 +4°C° 0 mm 6 m/s 756 mmHg 74%
    10:00 +5°C° 0 mm 6 m/s 756 mmHg 73%
    11:00 +5°C° 0 mm 6 m/s 756 mmHg 73%
    12:00 +7°C° 0 mm 6 m/s 756 mmHg 73%
    13:00 +7°C° 0 mm 6 m/s 756 mmHg 72%
    14:00 +7°C° 0 mm 6 m/s 756 mmHg 74%
    15:00 +5°C° 0 mm 6 m/s 756 mmHg 75%
    16:00 +6°C° 0 mm 5 m/s 757 mmHg 76%
    17:00 +5°C° 0 mm 5 m/s 757 mmHg 77%
    18:00 +3°C° 0 mm 5 m/s 758 mmHg 77%
    19:00 +3°C° 0 mm 5 m/s 758 mmHg 78%
    20:00 +2°C° 0 mm 5 m/s 758 mmHg 78%
    21:00 +3°C° 0 mm 4 m/s 759 mmHg 77%
    22:00 +3°C° 0 mm 4 m/s 759 mmHg 77%
    23:00 +3°C° 0 mm 4 m/s 759 mmHg 77%

    19 Dezembro, Quarta-feira

    Tempo Temperatura Precipitação Vento Pressão Humidade
    00:00 +1°C° 0 mm 4 m/s 759 mmHg 76%
    01:00 +1°C° 0 mm 4 m/s 759 mmHg 76%
    02:00 +1°C° 0 mm 4 m/s 759 mmHg 75%
    03:00 +1°C° 0 mm 4 m/s 759 mmHg 75%
    04:00 +2°C° 0 mm 3 m/s 759 mmHg 75%
    05:00 +2°C° 0 mm 3 m/s 760 mmHg 74%
    06:00 +2°C° 0 mm 3 m/s 760 mmHg 74%
    07:00 +2°C° 0 mm 3 m/s 760 mmHg 74%
    08:00 +5°C° 0 mm 2 m/s 760 mmHg 73%
    09:00 +6°C° 0 mm 2 m/s 760 mmHg 72%
    10:00 +8°C° 0 mm 2 m/s 760 mmHg 72%
    11:00 +10°C° 0 mm 1 m/s 760 mmHg 69%
    12:00 +11°C° 0 mm 1 m/s 760 mmHg 67%
    13:00 +11°C° 0 mm 1 m/s 759 mmHg 65%
    14:00 +10°C° 0 mm 1 m/s 760 mmHg 68%
    15:00 +9°C° 0 mm 1 m/s 760 mmHg 71%
    16:00 +8°C° 0 mm 1 m/s 760 mmHg 74%
    17:00 +8°C° 0 mm 1 m/s 760 mmHg 74%
    18:00 +7°C° 0 mm 1 m/s 760 mmHg 74%
    19:00 +7°C° 0 mm 1 m/s 760 mmHg 75%
    20:00 +6°C° 0 mm 2 m/s 761 mmHg 73%
    21:00 +6°C° 0 mm 2 m/s 761 mmHg 72%
    22:00 +5°C° 0 mm 2 m/s 761 mmHg 71%
    23:00 +5°C° 0 mm 2 m/s 761 mmHg 70%

    20 Dezembro, Quinta-feira

    Tempo Temperatura Precipitação Vento Pressão Humidade
    00:00 +5°C° 0 mm 2 m/s 761 mmHg 68%
    01:00 +5°C° 0 mm 2 m/s 761 mmHg 67%
    02:00 +4°C° 0 mm 3 m/s 761 mmHg 66%
    03:00 +4°C° 0 mm 3 m/s 760 mmHg 64%
    04:00 +4°C° 0 mm 3 m/s 760 mmHg 62%
    05:00 +4°C° 0 mm 4 m/s 760 mmHg 61%
    06:00 +4°C° 0 mm 4 m/s 760 mmHg 60%
    07:00 +4°C° 0 mm 4 m/s 761 mmHg 58%
    08:00 +6°C° 0 mm 4 m/s 761 mmHg 59%
    09:00 +7°C° 0 mm 5 m/s 761 mmHg 60%
    10:00 +9°C° 0 mm 5 m/s 761 mmHg 61%
    11:00 +10°C° 0 mm 5 m/s 760 mmHg 60%
    12:00 +10°C° 0 mm 5 m/s 760 mmHg 60%
    13:00 +11°C° 0 mm 6 m/s 759 mmHg 59%
    14:00 +10°C° 0.1 mm 6 m/s 759 mmHg 61%
    15:00 +9°C° 0.1 mm 6 m/s 759 mmHg 63%
    16:00 +8°C° 0.1 mm 6 m/s 759 mmHg 65%
    17:00 +8°C° 0.1 mm 6 m/s 759 mmHg 67%
    18:00 +8°C° 0.1 mm 6 m/s 759 mmHg 68%
    19:00 +8°C° 0.1 mm 7 m/s 759 mmHg 70%
    20:00 +8°C° 0.2 mm 7 m/s 759 mmHg 72%
    21:00 +8°C° 0.2 mm 6 m/s 759 mmHg 75%
    22:00 +8°C° 0.2 mm 6 m/s 759 mmHg 77%
    23:00 +8°C° 0.4 mm 6 m/s 759 mmHg 79%

    21 Dezembro, Sexta-feira

    Tempo Temperatura Precipitação Vento Pressão Humidade
    00:00 +8°C° 0.4 mm 6 m/s 758 mmHg 81%
    01:00 +8°C° 0.4 mm 5 m/s 758 mmHg 83%
    02:00 +8°C° 0.4 mm 5 m/s 758 mmHg 85%
    03:00 +8°C° 0.4 mm 4 m/s 758 mmHg 88%
    04:00 +8°C° 0.4 mm 4 m/s 758 mmHg 91%
    05:00 +8°C° 0.1 mm 4 m/s 758 mmHg 92%
    06:00 +8°C° 0.1 mm 4 m/s 758 mmHg 93%
    07:00 +8°C° 0.1 mm 4 m/s 759 mmHg 95%
    08:00 +10°C° 0.2 mm 4 m/s 759 mmHg 90%
    09:00 +11°C° 0.2 mm 4 m/s 759 mmHg 85%
    10:00 +12°C° 0.2 mm 4 m/s 760 mmHg 80%
    11:00 +12°C° 0.2 mm 4 m/s 759 mmHg 79%
    12:00 +12°C° 0.2 mm 4 m/s 759 mmHg 78%
    13:00 +12°C° 0.2 mm 4 m/s 759 mmHg 77%
    14:00 +11°C° 0.1 mm 4 m/s 759 mmHg 79%
    15:00 +11°C° 0.1 mm 4 m/s 760 mmHg 82%
    16:00 +10°C° 0.1 mm 4 m/s 760 mmHg 85%
    17:00 +9°C° 0 mm 3 m/s 760 mmHg 86%
    18:00 +9°C° 0 mm 3 m/s 760 mmHg 88%
    19:00 +8°C° 0 mm 2 m/s 761 mmHg 89%
    20:00 +8°C° 0 mm 2 m/s 761 mmHg 90%
    21:00 +7°C° 0 mm 2 m/s 761 mmHg 90%
    22:00 +7°C° 0 mm 2 m/s 761 mmHg 91%
    23:00 +7°C° 0 mm 2 m/s 761 mmHg 89%
    Mostrar mais